This demonstration page uses our WeatherBlox Daily Observations layout. Learn more.

Left ArrowRight Arrow

41.86663, -103.66717

Hourly Observations for July 24, 2018

Temp ( °F °C ) Dew Point ( °F °C ) Humidity (%) Winds ( mph kmh ) Pressure ( in mb ) Visibility ( mi km ) Precip ( " mm )
12:53 am 00:53 Mostly Clear 63 17.2 59 15 87 87 ESE 8 13 30.16 1021 10 16.0934 N/A
1:53 am 01:53 Mostly Clear 61 16.1 58 14.4 90 90 NE 5 7 30.17 1022 10 16.0934 N/A
2:53 am 02:53 Mostly Cloudy 63 17.2 58 14.4 84 84 E 7 11 30.15 1021 10 16.0934 N/A
3:53 am 03:53 Mostly Clear 63 17.2 56 13.3 78 78 ESE 10 17 30.14 1021 10 16.0934 N/A
4:53 am 04:53 Clear 60 15.6 56 13.3 86 86 SE 6 9 30.14 1021 10 16.0934 N/A
5:53 am 05:53 Sunny 59 15 57 13.9 93 93 E 5 7 30.15 1021 10 16.0934 N/A
6:53 am 06:53 Sunny 63 17.2 57 13.9 81 81 SE 7 11 30.15 1021 10 16.0934 N/A
7:53 am 07:53 Sunny 66 18.9 59 15 78 78 ESE 9 15 30.15 1021 10 16.0934 N/A
8:53 am 08:53 Sunny 70 21.1 61 16.1 73 73 ESE 12 19 30.16 1021 10 16.0934 N/A
9:53 am 09:53 Sunny 73 22.8 63 17.2 71 71 ESE 9 15 30.15 1021 10 16.0934 N/A
10:53 am 10:53 undefined 78 25.6 66 18.9 67 67 undefined N/A 30.13 1020 N/A N/A
11:53 am 11:53 undefined 82 27.8 68 20 63 63 S 6 9 30.11 1020 N/A N/A
12:53 pm 12:53 Sunny 85 29.4 68 20 57 57 E 7 11 30.07 1018 10 16.0934 N/A
1:53 pm 13:53 Sunny 87 30.6 68 20 53 53 VRB 7 11 30.05 1018 10 16.0934 N/A
2:53 pm 14:53 Sunny 89 31.7 65 18.3 45 45 ESE 8 13 30.03 1017 10 16.0934 N/A
3:53 pm 15:53 Sunny 91 32.8 63 17.2 39 39 ESE 10 17 30 1016 10 16.0934 N/A
4:53 pm 16:53 Sunny 91 32.8 63 17.2 39 39 ESE 12 19 29.98 1015 10 16.0934 N/A
5:53 pm 17:53 Sunny 89 31.7 68 20 50 50 E 14 22 29.98 1015 10 16.0934 N/A
6:07 pm 18:07 Sunny with Nearby Thunderstorms 87 30.6 68 20 53 53 E 14 22 29.8 1009 10 16.0934 N/A
6:22 pm 18:22 Mostly Sunny 84 29 66 19 55 55 E 12 19 29.83 1010 10 16.0934 N/A
6:26 pm 18:26 Partly Cloudy with Thunderstorms 84 29 66 19 55 55 ESE 8 13 29.83 1010 10 16.0934 N/A
6:41 pm 18:41 Mostly Cloudy with Heavy Thunderstorms 73 22.8 69 20.6 87 87 WSW 28 44 29.94 1014 1.75 2.816345 0.09 2.286
6:53 pm 18:53 Mostly Cloudy with Heavy Thunderstorms 73 22.8 70 21.1 90 90 S 20 31 30.05 1018 1.75 2.816345 0.3 7.62
6:57 pm 18:57 Cloudy with Thunderstorms 73 22.8 70 21.1 90 90 SSW 18 30 29.91 1013 2.5 4.02335 0.01 0.254
7:03 pm 19:03 Windy with Storms Likely 72 22.2 68 20 87 87 SSW 24 39 29.91 1013 6 9.65604 0.02 0.508
7:22 pm 19:22 Mostly Cloudy with Thunderstorms 75 24 66 19 74 74 SE 13 20 29.88 1012 10 16.0934 N/A
7:33 pm 19:33 Mostly Cloudy 74 23.3 66 18.9 76 76 SE 9 15 29.91 1013 10 16.0934 0.02 0.508
7:53 pm 19:53 Cloudy with Light Rain 72 22.2 69 20.6 91 91 E 8 13 30.02 1017 9 14.48406 0.02 0.508
8:53 pm 20:53 Mostly Cloudy 71 21.7 68 20 90 90 N N/A 30.03 1017 10 16.0934 N/A
9:53 pm 21:53 Clear 72 22.2 69 20.6 91 91 ESE 10 17 30.04 1017 10 16.0934 N/A
10:53 pm 22:53 Clear 73 22.8 69 20.6 87 87 SSE 13 20 30.02 1017 10 16.0934 N/A
11:53 pm 23:53 Mostly Clear 75 23.9 63 17.2 66 66 S 12 19 29.98 1015 10 16.0934 N/A

Powered by AerisWeather